| time (UTC) | temp C | wind direction | speed KPH | gust KPH | rain 1hr cm | rain 24hr cm | rain mn cm | humidity % | barometer mb |
| 20260510163605 | 11 | 70 | 1.6 | 9.7 | 0.00 | 0.00 | 0.00 | 58 | 1016.7 |
| 20260510162705 | 11 | 71 | 1.6 | 4.8 | 0.00 | 0.00 | 0.00 | 59 | 1016.9 |
| 20260510161805 | 10 | 57 | 1.6 | 6.4 | 0.00 | 0.00 | 0.00 | 58 | 1017.1 |
| 20260510160905 | 11 | 80 | 0.0 | 4.8 | 0.00 | 0.00 | 0.00 | 59 | 1017.2 |
| 20260510160005 | 10 | 83 | 1.6 | 9.7 | 0.00 | 0.00 | 0.00 | 60 | 1017.3 |
| 20260510155405 | 11 | 51 | 3.2 | 12.9 | 0.00 | 0.00 | 0.00 | 57 | 1017.3 |
| 20260510154505 | 11 | 40 | 1.6 | 11.3 | 0.00 | 0.00 | 0.00 | 57 | 1017.6 |
| 20260510153605 | 10 | 37 | 1.6 | 6.4 | 0.00 | 0.00 | 0.00 | 63 | 1017.7 |
| 20260510152705 | 10 | 55 | 1.6 | 12.9 | 0.00 | 0.00 | 0.00 | 65 | 1017.9 |
| 20260510151805 | 10 | 49 | 1.6 | 9.7 | 0.00 | 0.00 | 0.00 | 63 | 1017.8 |
| 20260510150905 | 10 | 80 | 1.6 | 4.8 | 0.00 | 0.00 | 0.00 | 62 | 1018.0 |
| 20260510150005 | 11 | 100 | 1.6 | 6.4 | 0.00 | 0.00 | 0.00 | 59 | 1017.9 |
| 20260510145405 | 11 | 74 | 1.6 | 9.7 | 0.00 | 0.00 | 0.00 | 60 | 1018.0 |
| 20260510144505 | 11 | 59 | 1.6 | 9.7 | 0.00 | 0.00 | 0.00 | 63 | 1018.0 |
| 20260510143605 | 10 | 80 | 1.6 | 9.7 | 0.00 | 0.00 | 0.00 | 65 | 1018.0 |
| 20260510142705 | 10 | 75 | 1.6 | 16.1 | 0.00 | 0.00 | 0.00 | 64 | 1018.1 |
| 20260510141805 | 11 | 73 | 1.6 | 9.7 | 0.00 | 0.00 | 0.00 | 60 | 1018.1 |
| 20260510140905 | 11 | 71 | 1.6 | 11.3 | 0.00 | 0.00 | 0.00 | 62 | 1018.2 |
| 20260510140005 | 11 | 86 | 1.6 | 11.3 | 0.00 | 0.00 | 0.00 | 62 | 1018.4 |
| 20260510135405 | 11 | 73 | 1.6 | 9.7 | 0.00 | 0.00 | 0.00 | 62 | 1018.2 |
| 20260510134505 | 10 | 82 | 1.6 | 9.7 | 0.00 | 0.00 | 0.00 | 66 | 1018.2 |
| 20260510133605 | 11 | 48 | 1.6 | 12.9 | 0.00 | 0.00 | 0.00 | 63 | 1018.4 |
| 20260510132705 | 10 | 39 | 3.2 | 6.4 | 0.00 | 0.00 | 0.00 | 66 | 1018.5 |
| 20260510131805 | 11 | 46 | 3.2 | 9.7 | 0.00 | 0.00 | 0.00 | 67 | 1018.5 |
| 20260510130905 | 11 | 51 | 3.2 | 9.7 | 0.00 | 0.00 | 0.00 | 67 | 1018.6 |
| 20260510130005 | 11 | 31 | 1.6 | 9.7 | 0.00 | 0.00 | 0.00 | 67 | 1018.8 |
| 20260510125405 | 11 | 60 | 1.6 | 12.9 | 0.00 | 0.00 | 0.00 | 66 | 1018.7 |
| 20260510124505 | 10 | 93 | 1.6 | 6.4 | 0.00 | 0.00 | 0.00 | 68 | 1018.9 |
| 20260510123604 | 11 | 56 | 1.6 | 12.9 | 0.00 | 0.00 | 0.00 | 67 | 1018.7 |
| 20260510122704 | 11 | 81 | 3.2 | 17.7 | 0.00 | 0.00 | 0.00 | 69 | 1018.8 |
| 20260510121804 | 10 | 93 | 1.6 | 9.7 | 0.00 | 0.00 | 0.00 | 70 | 1019.0 |
| 20260510120904 | 10 | 69 | 1.6 | 6.4 | 0.00 | 0.00 | 0.00 | 70 | 1019.1 |
| 20260510120005 | 11 | 94 | 1.6 | 12.9 | 0.00 | 0.00 | 0.00 | 68 | 1019.3 |
| 20260510115408 | 10 | 85 | 1.6 | 16.1 | 0.00 | 0.00 | 0.00 | 67 | 1019.2 |
| 20260510114505 | 12 | 90 | 3.2 | 14.5 | 0.00 | 0.00 | 0.00 | 64 | 1019.1 |
| 20260510113605 | 12 | 74 | 1.6 | 14.5 | 0.00 | 0.00 | 0.00 | 65 | 1019.2 |
| 20260510112705 | 11 | 62 | 3.2 | 12.9 | 0.00 | 0.00 | 0.00 | 65 | 1019.4 |
| 20260510111804 | 11 | 85 | 1.6 | 11.3 | 0.00 | 0.00 | 0.00 | 66 | 1019.4 |
| 20260510110904 | 11 | 1 | 1.6 | 12.9 | 0.00 | 0.00 | 0.00 | 66 | 1019.7 |
| 20260510110005 | 10 | 82 | 1.6 | 6.4 | 0.00 | 0.00 | 0.00 | 71 | 1019.5 |
| 20260510105404 | 10 | 99 | 1.6 | 6.4 | 0.00 | 0.00 | 0.00 | 70 | 1019.7 |
| 20260510104505 | 10 | 80 | 1.6 | 6.4 | 0.00 | 0.00 | 0.00 | 70 | 1019.8 |
| 20260510103604 | 10 | 73 | 1.6 | 9.7 | 0.00 | 0.00 | 0.00 | 73 | 1019.9 |
| 20260510102704 | 10 | 69 | 1.6 | 11.3 | 0.00 | 0.00 | 0.00 | 71 | 1019.8 |
| 20260510101804 | 11 | 89 | 1.6 | 12.9 | 0.00 | 0.00 | 0.00 | 68 | 1020.0 |
| 20260510100904 | 10 | 71 | 3.2 | 11.3 | 0.00 | 0.00 | 0.00 | 72 | 1019.8 |
| 20260510100008 | 11 | 84 | 1.6 | 11.3 | 0.00 | 0.00 | 0.00 | 70 | 1019.9 |
| 20260510095408 | 11 | 96 | 1.6 | 6.4 | 0.00 | 0.00 | 0.00 | 70 | 1020.2 |
| 20260510094504 | 10 | 104 | 1.6 | 12.9 | 0.00 | 0.00 | 0.00 | 72 | 1020.2 |
| 20260510093604 | 9 | 87 | 1.6 | 9.7 | 0.00 | 0.00 | 0.00 | 74 | 1020.1 |
| 20260510092704 | 10 | 50 | 1.6 | 9.7 | 0.00 | 0.00 | 0.00 | 75 | 1020.2 |
| 20260510091804 | 10 | 75 | 1.6 | 6.4 | 0.00 | 0.00 | 0.00 | 74 | 1020.2 |
| 20260510090904 | 10 | 94 | 1.6 | 9.7 | 0.00 | 0.00 | 0.00 | 74 | 1020.2 |
| 20260510090004 | 10 | 74 | 1.6 | 14.5 | 0.00 | 0.00 | 0.00 | 75 | 1020.3 |
| 20260510085404 | 10 | 52 | 1.6 | 14.5 | 0.00 | 0.00 | 0.00 | 74 | 1020.2 |
| 20260510084508 | 10 | 28 | 1.6 | 6.4 | 0.00 | 0.00 | 0.00 | 77 | 1020.3 |
| 20260510083604 | 9 | 59 | 1.6 | 6.4 | 0.00 | 0.00 | 0.00 | 78 | 1020.2 |
| 20260510082704 | 9 | 47 | 1.6 | 14.5 | 0.00 | 0.00 | 0.00 | 76 | 1020.2 |
| 20260510081804 | 8 | 50 | 3.2 | 11.3 | 0.00 | 0.00 | 0.00 | 78 | 1020.1 |
| 20260510080904 | 8 | 64 | 1.6 | 9.7 | 0.00 | 0.00 | 0.00 | 76 | 1020.1 |
| 20260510080004 | 9 | 83 | 1.6 | 9.7 | 0.00 | 0.00 | 0.00 | 77 | 1020.1 |
| 20260510075404 | 9 | 83 | 1.6 | 4.8 | 0.00 | 0.00 | 0.00 | 75 | 1020.2 |
| 20260510074507 | 9 | 63 | 1.6 | 11.3 | 0.00 | 0.00 | 0.00 | 75 | 1020.2 |
| 20260510073604 | 9 | 75 | 1.6 | 11.3 | 0.00 | 0.00 | 0.00 | 76 | 1020.0 |
| 20260510072704 | 8 | 55 | 1.6 | 11.3 | 0.00 | 0.00 | 0.00 | 75 | 1020.0 |
| 20260510071804 | 8 | 79 | 1.6 | 9.7 | 0.00 | 0.00 | 0.00 | 76 | 1019.9 |
| 20260510070904 | 8 | 85 | 1.6 | 9.7 | 0.00 | 0.00 | 0.00 | 78 | 1019.9 |
| 20260510070004 | 8 | 66 | 1.6 | 6.4 | 0.00 | 0.00 | 0.00 | 80 | 1019.9 |
| 20260510065404 | 8 | 57 | 1.6 | 6.4 | 0.00 | 0.00 | 0.00 | 81 | 1019.7 |
| 20260510064504 | 8 | 91 | 1.6 | 9.7 | 0.00 | 0.00 | 0.00 | 82 | 1019.9 |
| 20260510063604 | 8 | 55 | 1.6 | 9.7 | 0.00 | 0.00 | 0.00 | 84 | 1019.5 |
| 20260510062707 | 8 | 81 | 1.6 | 9.7 | 0.00 | 0.00 | 0.00 | 85 | 1019.7 |
| 20260510061807 | 8 | 96 | 1.6 | 9.7 | 0.00 | 0.00 | 0.00 | 86 | 1019.4 |
| 20260510060904 | 8 | 37 | 1.6 | 6.4 | 0.00 | 0.00 | 0.00 | 87 | 1019.3 |
| 20260510060004 | 8 | 47 | 1.6 | 11.3 | 0.00 | 0.00 | 0.00 | 87 | 1019.7 |
| 20260510055404 | 8 | 71 | 1.6 | 11.3 | 0.00 | 0.00 | 0.00 | 87 | 1019.3 |
| 20260510054504 | 8 | 100 | 1.6 | 9.7 | 0.00 | 0.00 | 0.00 | 87 | 1019.3 |
| 20260510053604 | 8 | 22 | 1.6 | 11.3 | 0.00 | 0.00 | 0.00 | 88 | 1019.5 |
| 20260510052704 | 8 | 68 | 1.6 | 11.3 | 0.00 | 0.00 | 0.00 | 88 | 1019.7 |
| 20260510051807 | 8 | 57 | 1.6 | 11.3 | 0.00 | 0.00 | 0.00 | 88 | 1019.5 |
| 20260510050904 | 8 | 67 | 1.6 | 9.7 | 0.00 | 0.00 | 0.00 | 89 | 1019.5 |
| 20260510050004 | 8 | 101 | 1.6 | 9.7 | 0.00 | 0.00 | 0.00 | 88 | 1019.5 |
| 20260510045404 | 8 | 70 | 1.6 | 12.9 | 0.00 | 0.00 | 0.00 | 89 | 1019.4 |
| 20260510044504 | 8 | 67 | 1.6 | 11.3 | 0.00 | 0.00 | 0.00 | 89 | 1019.2 |
| 20260510043604 | 8 | 95 | 1.6 | 9.7 | 0.00 | 0.00 | 0.00 | 90 | 1019.3 |
| 20260510042704 | 8 | 79 | 1.6 | 9.7 | 0.00 | 0.00 | 0.00 | 90 | 1019.3 |
| 20260510041804 | 8 | 71 | 1.6 | 9.7 | 0.00 | 0.00 | 0.00 | 90 | 1019.3 |
| 20260510040904 | 8 | 65 | 1.6 | 11.3 | 0.00 | 0.00 | 0.00 | 91 | 1019.3 |
| 20260510040004 | 8 | 64 | 1.6 | 6.4 | 0.00 | 0.00 | 0.00 | 90 | 1019.2 |
| 20260510035404 | 8 | 62 | 1.6 | 9.7 | 0.00 | 0.00 | 0.00 | 90 | 1019.3 |
| 20260510034507 | 8 | 73 | 1.6 | 6.4 | 0.00 | 0.00 | 0.00 | 91 | 1019.8 |
| 20260510033603 | 8 | 85 | 1.6 | 6.4 | 0.00 | 0.00 | 0.00 | 90 | 1019.5 |
| 20260510032703 | 8 | 75 | 1.6 | 6.4 | 0.00 | 0.00 | 0.00 | 90 | 1019.7 |
| 20260510031804 | 8 | 93 | 1.6 | 14.5 | 0.00 | 0.00 | 0.00 | 91 | 1019.5 |
| 20260510030907 | 8 | 49 | 1.6 | 11.3 | 0.00 | 0.00 | 0.00 | 91 | 1019.4 |
| 20260510030004 | 8 | 98 | 1.6 | 11.3 | 0.00 | 0.00 | 0.00 | 91 | 1019.8 |
| 20260510025404 | 8 | 67 | 1.6 | 11.3 | 0.00 | 0.00 | 0.00 | 91 | 1019.7 |
| 20260510024504 | 8 | 88 | 1.6 | 9.7 | 0.00 | 0.00 | 0.00 | 91 | 1019.7 |
| 20260510023603 | 9 | 68 | 1.6 | 9.7 | 0.00 | 0.00 | 0.00 | 91 | 1019.7 |
| 20260510022703 | 9 | 82 | 1.6 | 6.4 | 0.00 | 0.00 | 0.00 | 91 | 1020.0 |
| 20260510021803 | 9 | 81 | 1.6 | 4.8 | 0.00 | 0.00 | 0.00 | 92 | 1019.9 |
| 20260510020903 | 9 | 69 | 1.6 | 4.8 | 0.00 | 0.00 | 0.00 | 92 | 1019.9 |
| 20260510020004 | 9 | 63 | 1.6 | 4.8 | 0.00 | 0.00 | 0.00 | 92 | 1019.7 |
| 20260510015403 | 9 | 70 | 1.6 | 4.8 | 0.00 | 0.00 | 0.00 | 92 | 1019.9 |
| 20260510014503 | 9 | 97 | 1.6 | 9.7 | 0.00 | 0.00 | 0.00 | 91 | 1019.8 |
| 20260510013603 | 9 | 51 | 1.6 | 6.4 | 0.00 | 0.00 | 0.00 | 91 | 1020.0 |
| 20260510012703 | 9 | 113 | 1.6 | 6.4 | 0.00 | 0.00 | 0.00 | 91 | 1020.0 |
| 20260510011804 | 9 | 74 | 1.6 | 6.4 | 0.00 | 0.00 | 0.00 | 91 | 1020.0 |
| 20260510010904 | 9 | 67 | 0.0 | 9.7 | 0.00 | 0.00 | 0.00 | 92 | 1019.9 |
| 20260510010003 | 9 | 59 | 0.0 | 3.2 | 0.00 | 0.00 | 0.00 | 92 | 1020.0 |
| 20260510005403 | 9 | 63 | 0.0 | 4.8 | 0.00 | 0.00 | 0.00 | 92 | 1020.0 |
| 20260510004507 | 9 | 117 | 0.0 | 3.2 | 0.00 | 0.00 | 0.00 | 91 | 1019.9 |
| 20260510003607 | 9 | 107 | 1.6 | 4.8 | 0.00 | 0.00 | 0.00 | 91 | 1019.9 |
| 20260510002703 | 9 | 87 | 1.6 | 3.2 | 0.00 | 0.00 | 0.00 | 91 | 1020.1 |
| 20260510001803 | 9 | 91 | 1.6 | 4.8 | 0.00 | 0.00 | 0.00 | 91 | 1020.2 |
| 20260510000903 | 9 | 108 | 0.0 | 1.6 | 0.00 | 0.00 | 0.00 | 91 | 1020.2 |
| 20260510000004 | 9 | 81 | 0.0 | 11.3 | 0.00 | 0.00 | 0.00 | 91 | 1020.4 |
| 20260509235403 | 9 | 69 | 1.6 | 6.4 | 0.00 | 0.00 | 0.00 | 92 | 1020.2 |
| 20260509234503 | 9 | 79 | 1.6 | 11.3 | 0.00 | 0.00 | 0.00 | 92 | 1020.2 |
| 20260509233603 | 9 | 78 | 0.0 | 4.8 | 0.00 | 0.00 | 0.00 | 93 | 1020.5 |
| 20260509232707 | 9 | 14 | 0.0 | 3.2 | 0.00 | 0.00 | 0.00 | 93 | 1020.2 |
| 20260509231803 | 8 | 112 | 0.0 | 3.2 | 0.00 | 0.00 | 0.00 | 93 | 1020.2 |
| 20260509230903 | 8 | 109 | 0.0 | 3.2 | 0.00 | 0.00 | 0.00 | 93 | 1020.2 |
| 20260509230004 | 8 | 30 | 0.0 | 4.8 | 0.00 | 0.00 | 0.00 | 93 | 1020.1 |
| 20260509225403 | 8 | 44 | 0.0 | 4.8 | 0.00 | 0.00 | 0.00 | 94 | 1020.0 |
| 20260509224503 | 8 | 14 | 0.0 | 1.6 | 0.00 | 0.00 | 0.00 | 93 | 1020.1 |
| 20260509223603 | 8 | 2 | 0.0 | 3.2 | 0.00 | 0.00 | 0.00 | 94 | 1019.8 |
| 20260509222703 | 8 | 44 | 0.0 | 3.2 | 0.00 | 0.00 | 0.00 | 93 | 1019.7 |
| 20260509221803 | 8 | 38 | 0.0 | 3.2 | 0.00 | 0.00 | 0.00 | 94 | 1019.7 |
| 20260509220903 | 8 | 46 | 1.6 | 4.8 | 0.00 | 0.00 | 0.00 | 94 | 1019.7 |
| 20260509220003 | 8 | 54 | 0.0 | 4.8 | 0.00 | 0.00 | 0.00 | 94 | 1019.5 |
| 20260509215403 | 9 | 170 | 0.0 | 4.8 | 0.00 | 0.00 | 0.00 | 93 | 1019.5 |
| 20260509214503 | 9 | 77 | 0.0 | 6.4 | 0.00 | 0.00 | 0.00 | 94 | 1019.5 |
| 20260509213606 | 8 | 45 | 0.0 | 3.2 | 0.00 | 0.00 | 0.00 | 94 | 1019.9 |
| 20260509212703 | 9 | 52 | 0.0 | 3.2 | 0.00 | 0.00 | 0.00 | 94 | 1019.8 |
| 20260509211806 | 9 | 45 | 0.0 | 3.2 | 0.00 | 0.00 | 0.00 | 93 | 1020.0 |
| 20260509210906 | 9 | 100 | 0.0 | 1.6 | 0.00 | 0.00 | 0.00 | 93 | 1019.8 |
| 20260509210005 | 9 | 57 | 0.0 | 9.7 | 0.00 | 0.00 | 0.00 | 93 | 1019.8 |
| 20260509205405 | 9 | 43 | 1.6 | 9.7 | 0.00 | 0.00 | 0.00 | 93 | 1020.0 |
| 20260509204506 | 10 | 53 | 1.6 | 9.7 | 0.00 | 0.00 | 0.00 | 92 | 1019.9 |
| 20260509203606 | 10 | 54 | 1.6 | 9.7 | 0.00 | 0.00 | 0.00 | 91 | 1019.9 |
| 20260509202705 | 10 | 56 | 1.6 | 6.4 | 0.00 | 0.00 | 0.00 | 90 | 1019.5 |
| 20260509201805 | 10 | 69 | 1.6 | 6.4 | 0.00 | 0.00 | 0.00 | 90 | 1019.8 |
| 20260509200905 | 10 | 357 | 0.0 | 3.2 | 0.00 | 0.00 | 0.00 | 87 | 1019.7 |
| 20260509200005 | 9 | 56 | 0.0 | 3.2 | 0.00 | 0.00 | 0.00 | 84 | 1019.5 |
| 20260509195405 | 10 | 70 | 0.0 | 3.2 | 0.00 | 0.00 | 0.00 | 85 | 1019.5 |
| 20260509194505 | 10 | 53 | 0.0 | 4.8 | 0.00 | 0.00 | 0.00 | 86 | 1019.2 |
| 20260509193605 | 10 | 67 | 0.0 | 3.2 | 0.00 | 0.00 | 0.00 | 87 | 1019.2 |
| 20260509192705 | 10 | 73 | 0.0 | 3.2 | 0.00 | 0.00 | 0.00 | 86 | 1019.1 |
| 20260509191805 | 10 | 32 | 0.0 | 3.2 | 0.00 | 0.00 | 0.00 | 86 | 1019.1 |
| 20260509190906 | 10 | 97 | 0.0 | 4.8 | 0.00 | 0.00 | 0.00 | 85 | 1019.0 |
| 20260509190007 | 11 | 87 | 0.0 | 3.2 | 0.00 | 0.00 | 0.00 | 85 | 1019.0 |
| 20260509185405 | 11 | 101 | 0.0 | 3.2 | 0.00 | 0.00 | 0.00 | 83 | 1018.9 |
| 20260509184505 | 12 | 63 | 0.0 | 4.8 | 0.00 | 0.00 | 0.00 | 80 | 1018.9 |
| 20260509183609 | 12 | 58 | 0.0 | 4.8 | 0.00 | 0.00 | 0.00 | 78 | 1018.8 |
| 20260509182705 | 13 | 44 | 0.0 | 3.2 | 0.00 | 0.00 | 0.00 | 75 | 1018.8 |
| 20260509181805 | 13 | 64 | 0.0 | 4.8 | 0.00 | 0.00 | 0.00 | 72 | 1018.6 |
| 20260509180908 | 14 | 57 | 0.0 | 1.6 | 0.00 | 0.00 | 0.00 | 68 | 1018.4 |
| 20260509180005 | 14 | 64 | 0.0 | 3.2 | 0.00 | 0.00 | 0.00 | 61 | 1018.5 |
| 20260509175405 | 14 | 83 | 0.0 | 1.6 | 0.00 | 0.00 | 0.00 | 56 | 1018.4 |
| 20260509174505 | 15 | 59 | 0.0 | 4.8 | 0.00 | 0.00 | 0.00 | 56 | 1018.2 |
| 20260509173605 | 15 | 59 | 0.0 | 4.8 | 0.00 | 0.00 | 0.00 | 56 | 1018.2 |
| 20260509172705 | 16 | 50 | 0.0 | 6.4 | 0.00 | 0.00 | 0.00 | 57 | 1018.5 |
| 20260509171805 | 16 | 75 | 0.0 | 3.2 | 0.00 | 0.00 | 0.00 | 57 | 1018.3 |
| 20260509170908 | 16 | 75 | 0.0 | 3.2 | 0.00 | 0.00 | 0.00 | 59 | 1018.1 |
| 20260509170009 | 15 | 64 | 0.0 | 4.8 | 0.00 | 0.00 | 0.00 | 58 | 1018.4 |
| 20260509165405 | 15 | 59 | 0.0 | 4.8 | 0.00 | 0.00 | 0.00 | 57 | 1018.4 |
| 20260509164505 | 15 | 55 | 0.0 | 3.2 | 0.00 | 0.00 | 0.00 | 51 | 1018.3 |